Regional Weather Roundup
Issued by NWS State College, PA

Home | Current Version | Previous Version | Text Only | Print | Product List | Glossary Off
Versions: 1 2 3 4 5 6 7 8 9 10 11 12 13 14 15 16 17 18 19 20 21 22 23 24 25 26 27 28 29 30 31 32 33 34 35 36 37 38 39 40 41 42 43 44 45 46 47 48 49 50

000
ASUS41 KCTP 031210
RWRCTP

REGIONAL WEATHER ROUNDUP
NATIONAL WEATHER SERVICE STATE COLLEGE PA
800 AM EDT THU SEP 03 2015

Note: "fair" indicates few or no clouds below 12,000 feet with no
significant weather and/or obstructions to visibility.

* = STATION THAT DOES NOT REPORT PRECIPITATION /E.G. RAIN...SNOW...ETC/
    THUNDER OR FOG.

PAZ002>004-007>009-013>016-020>023-029>032-031300-
WESTERN PENNSYLVANIA

CITY           SKY/WX    TMP DP  RH WIND       PRES   REMARKS
ERIE           PTSUNNY   72  68  87 S6        29.97S
MEADVILLE      MOSUNNY   70  66  87 SW3       30.02R FOG
FRANKLIN*      MOSUNNY   66  64  94 CALM      30.04R
NEW CASTLE     FAIR      68  68 100 CALM      30.03R FOG
BEAVER COUNTY  MOSUNNY   70  66  88 CALM      30.02R
BUTLER*        SUNNY     66  64  94 CALM      30.04R
PITTSBURGH INT PTSUNNY   72  66  81 CALM      30.01R
PITTSBURGH     SUNNY     68  63  84 S6        30.02R HAZE
INDIANA*       SUNNY     68  66  94 CALM      30.06R FOG
LATROBE        MOSUNNY   68  68 100 W8        30.03R
WASHINGTON CO* SUNNY     66  64  94 CALM      30.03S
$$

PAZ004>006-010>012-017>019-024>028-033>037-041-042-045-046-049>053-031300-
CENTRAL PENNSYLVANIA

CITY           SKY/WX    TMP DP  RH WIND       PRES   REMARKS
BRADFORD       FOG       59  59 100 CALM      30.04S VSB 1/4
DUBOIS         FOG       65  62  90 CALM      30.03R VSB<1/4
CLEARFIELD     FOG       65  64  97 CALM      30.02R VSB<1/4
JOHNSTOWN      SUNNY     66  63  90 SW6       30.06R FOG
ALTOONA        SUNNY     69  65  86 CALM      30.02R FOG
STATE COLLEGE  SUNNY     66  66 100 CALM      29.99R
WILLIAMSPORT   CLOUDY    69  66  90 N3        29.95S FOG
SELINSGROVE    SUNNY     68  66  93 CALM      29.96R FOG
FT INDIANTOWN  MOSUNNY   69  66  92 CALM      29.93S
CAPITAL CITY   SUNNY     73  66  78 W3        29.93R
HARRISBURG     MOSUNNY   74  67  78 NW10      29.92R
YORK           SUNNY     69  66  90 CALM      29.94R FOG
$$

PAZ038>040-043-044-047-048-054-055-060>062-067>071-031300-
EASTERN PENNSYLVANIA

CITY           SKY/WX    TMP DP  RH WIND       PRES   REMARKS
SCRANTON       SUNNY     68  62  81 SE3       29.97R HAZE
MOUNT POCONO   SUNNY     67  64  90 SW5       29.99R FOG
ALLENTOWN      SUNNY     70  65  84 CALM      29.93R HAZE
QUAKERTOWN*    SUNNY     66  64  94 CALM      29.93S
READING        SUNNY     70  66  87 CALM      29.92R FOG
LANCASTER      SUNNY     71  67  87 CALM      29.93S FOG
COATESVILLE    SUNNY     72  68  88 W3        29.94S FOG
POTTSTOWN      SUNNY     70  67  90 CALM      29.94R
BLUE BELL      SUNNY     72  68  88 CALM      29.91R
DOYLESTOWN     SUNNY     70  65  84 CALM      29.91R
WILLOW GROVE   NOT AVBL
NORTH PHILA    MOSUNNY   77  63  61 N5        29.92R HAZE
PHILADELPHIA   MOSUNNY   78  64  61 NW6       29.91R
$$


USA.gov is the U.S. government's official web portal to all federal, state and local government web resources and services.